Regional Weather Roundup
Issued by NWS

Home | Current Version | Previous Version | Text Only | Print | Product List | Glossary Off
Versions: 1 2 3 4 5 6 7 8 9 10 11 12 13 14 15 16 17 18 19 20 21 22 23 24 25 26 27 28 29 30 31 32 33 34 35 36 37 38 39 40 41 42 43 44 45 46 47 48 49 50

000
ASUS43 KFSD 221110
RWRSD

WEATHER ROUNDUP FOR SOUTH DAKOTA
NATIONAL WEATHER SERVICE SIOUX FALLS SD
600 AM CDT TUE JUL 22 2014

NOTE: "FAIR" INDICATES FEW OR NO CLOUDS BELOW 12,000 FEET WITH NO
SIGNIFICANT WEATHER AND/OR OBSTRUCTIONS TO VISIBILITY.


SDZ001>005-009-010-012>017-221200-
NORTHWEST AND NORTH CENTRAL SOUTH DAKOTA

CITY           SKY/WX    TMP DP  RH WIND       PRES   REMARKS
BUFFALO          N/A     58  57  97 SW3       30.12R
FAITH            N/A     60  58  92 NW6       30.15R
MOBRIDGE       CLOUDY    64  62  93 CALM      30.08R
$$

SDZ012>016-024>037-041>051-057-063-072>074-221200-
SOUTHWEST AND SOUTH CENTRAL SOUTH DAKOTA

CITY           SKY/WX    TMP DP  RH WIND       PRES   REMARKS
RAPID CTY ARPT TSTM      66  63  90 S6        30.17F
PIERRE         MOCLDY    64  63  96 W8        30.09R
CUSTER         MOCLDY    61  53  75 SW3       30.28F
ELLSWORTH AFB  MOCLDY    66  64  94 SE9       30.17R THUNDER
PHILIP         PTCLDY    64  62  93 NE7       30.09F
PINE RIDGE     PTCLDY    59  58  96 CALM      30.16R
WINNER         FAIR      67  63  87 W6        30.04F
$$

SDZ004>011-016>023-039-040-221200-
NORTHEAST SOUTH DAKOTA

CITY           SKY/WX    TMP DP  RH WIND       PRES   REMARKS
ABERDEEN       PTCLDY    61  61 100 NW5       30.04R
WATERTOWN      MOCLDY    65  63  93 N7        30.00F
SISSETON         N/A     65  64  97 N12       30.00R
$$

SDZ017-020-022-023-036>040-048>070-221200-
SOUTHEAST SOUTH DAKOTA

CITY           SKY/WX    TMP DP  RH WIND       PRES   REMARKS
SIOUX FALLS    MOCLDY    71  62  73 N8        30.01R
HURON          CLOUDY    66  63  90 N6        30.00R
MITCHELL       MOCLDY    68  64  87 MISG      29.94F
YANKTON        PTCLDY    70  63  78 N13G21    30.00R
$$

ABBREVIATIONS USED IN REMARKS
   TC - TEMPERATURE IN CELSIUS
  WCI - WIND CHILL INDEX
   HX - HEAT INDEX
  VSB - VISIBILITY



USA.gov is the U.S. government's official web portal to all federal, state and local government web resources and services.